Location: Bessat
(45.8735°N, 1.9924°E)
Time: 04:39:36
(UTC+00:00)

BREEZE-M DEB (TANK) - Pass Details

Date: 11 May 2021
Orbit: 287 x 13020 km, 49.6° (Epoch: 14 June)

Event Time Altitude Azimuth Distance (km) Brightness Sun altitude
Rises 19:54:50 0° 290° (WNW) 2,901 7.8 -7.1°
Reaches altitude 10° 19:56:15 10° 291° (WNW) 2,316 7.0 -7.3°
Maximum altitude 20:01:15 81° 19° (NNE) 1,473 4.5 -8.0°
Drops below altitude 10° 20:22:29 10° 110° (ESE) 8,689 7.8 -10.9°
Enters shadow 20:27:38 - 111° (ESE) 10,195 8.1 -11.6°
